User: anonymous   Login
Location: Solon
(41.3849°N, 81.4081°W)
Time: 15:56:49
(UTC-05:00)
Language:

CZ-2C R/B - Orbit

View from above orbital plane
View from above orbital plane
View from above satellite
View from above satellite

Ground track
Ground track

The orbit data is extracted from the following two-line orbital elements,

1 28480U 04046B   17348.26443566  .00000006  00000-0  17321-4 0  9999
2 28480  98.1927  72.8373 0142934  53.4760  10.1168 14.25659828679894
Epoch (UTC): 14 December 2017 06:20:47
Eccentricity: 0.0142934
inclination: 98.1927°
perigee height: 703 km
apogee height: 909 km
right ascension of ascending node: 72.8373°
argument of perigee: 53.4760°
revolutions per day: 14.25659828
mean anomaly at epoch: 10.1168°
orbit number at epoch: 67989

The dashed part of the orbit path shows where the satellite is in the earth's shadow,  

DLR